This demonstration page uses our WeatherBlox Daily Observations layout. Learn more.

Left ArrowRight Arrow

Hourly Observations for June 29, 2015

Temp ( °F °C ) Dew Point ( °F °C ) Humidity (%) Winds ( mph kmh ) Pressure ( in mb ) Visibility ( mi km ) Precip ( " mm )
12:53 am 00:53 Clear 65 18.3 51 10.6 61 61 SSE 5 7 29.95 1014 10 16 0.00 0.00
1:53 am 01:53 Clear 68 20 51 10.6 55 55 NNE 5 7 29.95 1014 10 16 0.00 0.00
2:53 am 02:53 Clear 65 18.3 52 11.1 63 63 E 8 13 29.96 1014 10 16 0.00 0.00
3:53 am 03:53 Clear 68 20 51 10.6 55 55 ENE 6 9 29.97 1015 10 16 0.00 0.00
4:53 am 04:53 Clear 68 20 50 10 53 53 ENE 9 15 29.97 1015 10 16 0.00 0.00
5:53 am 05:53 Sunny 64 17.8 53 11.7 68 68 E 7 11 29.98 1015 10 16 0.00 0.00
6:53 am 06:53 Partly Cloudy 73 22.8 51 10.6 46 46 ENE 9 15 29.99 1016 10 16 0.00 0.00
7:53 am 07:53 Partly Cloudy 80 26.7 53 11.7 39 39 E 9 15 29.98 1015 10 16 0.00 0.00
8:53 am 08:53 Sunny 84 28.9 53 11.7 34 34 E 10 17 29.98 1015 10 16 0.00 0.00
9:53 am 09:53 Sunny 88 31.1 51 10.6 28 28 ENE 14 22 29.97 1015 10 16 0.00 0.00
10:53 am 10:53 Sunny 90 32.2 50 10 25 25 E 14 22 29.96 1015 10 16 0.00 0.00
11:53 am 11:53 Sunny 93 33.9 49 9.4 22 22 E 15 24 29.96 1015 10 16 0.00 0.00
12:53 pm 12:53 Sunny 94 34.4 50 10 22 22 ESE 15 24 29.94 1014 10 16 0.00 0.00
1:53 pm 13:53 Sunny 95 35 50 10 22 22 E 15 24 29.91 1013 10 16 0.00 0.00
2:53 pm 14:53 Sunny 94 34.4 51 10.6 23 23 E 16 26 29.90 1012 10 16 0.00 0.00
3:53 pm 15:53 Sunny 95 35 51 10.6 23 23 E 17 28 29.87 1012 10 16 0.00 0.00
4:53 pm 16:53 Sunny 94 34.4 49 9.4 21 21 E 13 20 29.88 1012 10 16 0.00 0.00
5:53 pm 17:53 Partly Cloudy 92 33.3 47 8.3 21 21 ENE 5 7 29.89 1012 10 16 0.00 0.00
6:53 pm 18:53 Mostly Sunny 88 31.1 50 10 27 27 E 10 17 29.85 1011 10 16 0.00 0.00
7:53 pm 19:53 Mostly Sunny 88 31.1 48 8.9 25 25 ESE 14 22 29.83 1010 10 16 0.00 0.03
8:53 pm 20:53 Sunny 84 28.9 52 11.1 33 33 E 18 30 29.84 1011 10 16 0.00 0.00
9:53 pm 21:53 Partly Cloudy 81 27.2 54 12.2 39 39 E 20 31 29.86 1011 10 16 0.00 0.00
10:29 pm 22:29 Hazy 79 26.1 49 9.4 35 35 E 21 33 29.80 1009 2 3 0.00 0.00
10:36 pm 22:36 Mostly Cloudy with Haze 79 26 48 9 34 34 E 25 41 29.80 1009 2 2 0.00 0.00
10:53 pm 22:53 Mostly Cloudy with Haze 78 25.6 48 8.9 35 35 E 22 35 29.87 1012 2 2 0.00 0.00
11:36 pm 23:36 Hazy 77 25 50 10 39 39 ESE 18 30 29.80 1009 2 3 0.00 0.00
11:53 pm 23:53 Mostly Cloudy with Haze 77 25 50 10 39 39 E 21 33 29.87 1012 3 4 0.00 0.00

Powered by AerisWeather